Location: South Tamworth Observatory
(43.8246°N, 71.3026°W)
Time: 13:45:44
(UTC-05:00)

Amateur Radio Satellites - All Passes

Search period start: 08 February 2016 13:15
Search period end: 09 February 2016 13:15
Location: South Tamworth Observatory, 43.8246°N, 71.3026°W

Satellite Date Start Highest point End Downlink Frequencies (MHz)
Time Altitude Azimuth
SPROUT 08 Feb 13:16:37 13:19:44 20° 295° (WNW) 13:22:51 437.525
ITUPSAT 1 08 Feb 13:17:07 13:21:21 30° 96° (E) 13:25:33 437.325
AO-85 08 Feb 13:17:25 13:19:59 13° 334° (NNW) 13:22:33 145.980
SO-50 08 Feb 13:23:04 13:27:53 61° 52° (NE) 13:32:31 436.795
DANDE 08 Feb 13:25:07 13:32:30 69° 265° (W) 13:38:07 436.750
BEESAT 08 Feb 13:26:36 13:31:04 37° 98° (E) 13:35:30 436.000
AO-7 08 Feb 13:27:44 13:35:21 41° 59° (ENE) 13:42:58 29.400- 29.500
JAS-2 08 Feb 13:29:17 13:36:34 44° 262° (W) 13:43:20 435.910
TISAT 1 08 Feb 13:31:45 13:35:31 33° 291° (WNW) 13:39:15 437.305
M-CUBED/EXP-1 PRIME 08 Feb 13:42:07 13:44:25 16° 61° (ENE) 13:46:40 437.505
ITAMSAT 1 08 Feb 13:50:03 13:55:11 67° 258° (WSW) 14:00:24 435.822/435.867
AUBIESAT-1 08 Feb 13:53:16 13:55:45 18° 62° (ENE) 13:58:09 437.475
KKS-1 08 Feb 13:59:37 14:00:43 11° 89° (E) 14:01:48 437.445
SWISSCUBE 08 Feb 14:18:35 14:23:21 62° 287° (WNW) 14:28:05 437.505
YUBILEINY 08 Feb 14:22:13 14:31:08 90° 39° (NE) 14:39:58 435.215
HORYU 2 08 Feb 14:24:19 14:27:51 24° 66° (ENE) 14:31:25 437.375
Cosmos 2491 08 Feb 14:28:20 14:36:37 51° 89° (E) 14:44:55 435.465 / 435.565
RS-15 08 Feb 14:45:02 14:55:00 32° 338° (NNW) 15:05:26 29.354- 29.394
Gurwin Techsat 1B 08 Feb 14:45:18 14:47:42 13° 272° (W) 14:50:07 435.225
ITUPSAT 1 08 Feb 14:54:54 14:59:10 32° 293° (WNW) 15:03:26 437.325
Cosmos 2504 08 Feb 15:04:21 15:12:31 42° 71° (ENE) 15:20:09 435.465 / 435.565
SO-50 08 Feb 15:04:41 15:07:52 18° 250° (WSW) 15:11:00 436.795
BEESAT 08 Feb 15:04:43 15:08:41 26° 295° (WNW) 15:12:37 436.000
DANDE 08 Feb 15:11:58 15:13:32 11° 288° (WNW) 15:15:02 436.750
MOZHAYETS 4 08 Feb 15:15:04 15:19:07 29° 95° (E) 15:23:09
M-CUBED/EXP-1 PRIME 08 Feb 15:15:27 15:18:54 35° 255° (WSW) 15:22:08 437.505
AO-7 08 Feb 15:19:51 15:27:55 51° 258° (WSW) 15:36:04 29.400- 29.500
STARS 08 Feb 15:20:50 15:25:01 43° 99° (E) 15:29:10 437.465
AUBIESAT-1 08 Feb 15:26:52 15:30:11 32° 256° (WSW) 15:33:21 437.475
Cubesat XI-IV 08 Feb 15:32:16 15:34:37 13° 56° (NE) 15:36:59 437.490
KKS-1 08 Feb 15:33:22 15:37:49 76° 286° (WNW) 15:42:13 437.445
ISS 08 Feb 15:37:20 15:40:05 26° 137° (SE) 15:42:52 145.825
HORYU 2 08 Feb 16:00:14 16:04:16 34° 262° (W) 16:08:19 437.375
O/OREOS (USA 219) 08 Feb 16:12:00 16:14:36 15° 49° (NE) 16:17:12 437.305
YUBILEINY 08 Feb 16:20:55 16:26:39 20° 284° (WNW) 16:32:22 435.215
Cosmos 2491 08 Feb 16:25:45 16:33:41 38° 290° (WNW) 16:41:40 435.465 / 435.565
BRITE-PL 08 Feb 16:36:25 16:41:02 26° 65° (ENE) 16:45:34 437.365/2234.400
AO-85 08 Feb 16:44:16 16:46:18 12° 24° (NNE) 16:48:18 145.980
LilacSat-2 08 Feb 16:46:11 16:49:42 36° 71° (ENE) 16:53:13 437.200
MOZHAYETS 4 08 Feb 16:52:12 16:56:16 31° 292° (WNW) 17:00:20
CUTE-I 08 Feb 16:55:22 17:00:37 65° 72° (ENE) 17:05:56 437.470
BEESAT 3 08 Feb 16:57:07 17:00:53 42° 118° (ESE) 17:04:41 437.485
Cosmos 2504 08 Feb 16:57:50 17:05:58 46° 273° (W) 17:13:36 435.465 / 435.565
STARS 08 Feb 16:57:58 17:01:06 20° 296° (WNW) 17:04:13 437.465
RS-15 08 Feb 17:02:33 17:12:23 28° 13° (NNE) 17:22:29 29.354- 29.394
Cubesat XI-IV 08 Feb 17:08:32 17:13:51 83° 74° (ENE) 17:19:14 437.490
ISS 08 Feb 17:13:16 17:16:25 46° 335° (NNW) 17:19:34 145.825
BEESAT 2 08 Feb 17:18:27 17:22:17 46° 119° (ESE) 17:26:10 435.950
HO-68 08 Feb 17:23:19 17:28:14 20° 53° (NE) 17:33:10 435.675
PCSat 08 Feb 17:25:11 17:26:03 10° 28° (NNE) 17:26:55 145.827
CUBESAT XI-V 08 Feb 17:28:03 17:32:47 72° 101° (ESE) 17:37:27 437.345
STRAND 1 08 Feb 17:33:39 17:35:01 11° 87° (E) 17:36:23 437.568
DOVE 4 08 Feb 17:39:36 17:43:45 26° 67° (ENE) 17:47:45 437.250
GOMX 1 08 Feb 17:49:25 17:54:43 58° 73° (ENE) 17:59:50 467.674
O/OREOS (USA 219) 08 Feb 17:49:59 17:54:34 76° 249° (WSW) 17:59:09 437.305
GONETS M04 08 Feb 17:51:49 17:57:13 17° 57° (ENE) 18:02:36
CUTE 1.7 + AOD 2 08 Feb 17:52:57 17:54:40 12° 61° (ENE) 17:56:23 437.475
SEEDS 08 Feb 18:02:17 18:03:45 12° 61° (ENE) 18:05:13 437.485
BRITE-PL 08 Feb 18:13:39 18:19:11 51° 262° (W) 18:24:38 437.365/2234.400
AAUSAT CUBESAT 2 08 Feb 18:21:12 18:22:28 11° 61° (ENE) 18:23:44 437.432
LilacSat-2 08 Feb 18:21:40 18:24:10 17° 268° (W) 18:26:40 437.200
AO-85 08 Feb 18:23:22 18:28:21 41° 47° (NE) 18:32:56 145.980
CANX-2 08 Feb 18:35:13 18:39:05 36° 70° (ENE) 18:42:59 2200.000
BEESAT 3 08 Feb 18:35:37 18:38:49 22° 317° (NW) 18:42:02 437.485
CUTE-I 08 Feb 18:37:41 18:41:08 17° 269° (W) 18:44:37 437.470
CINEMA 3 08 Feb 18:44:49 18:49:05 37° 70° (ENE) 18:53:10 145.822/145.860
ISS 08 Feb 18:50:52 18:53:25 21° 354° (N) 18:55:58 145.825
Cubesat XI-IV 08 Feb 18:52:12 18:54:35 13° 272° (W) 18:57:00 437.490
BEESAT 2 08 Feb 18:57:16 19:00:25 22° 317° (NW) 19:03:35 435.950
AIST 2 08 Feb 19:01:48 19:05:54 60° 121° (ESE) 19:10:01 435.215
CUBEBUG 2 08 Feb 19:02:46 19:05:59 21° 66° (ENE) 19:09:10 437.445
PCSat 08 Feb 19:05:54 19:11:02 40° 51° (NE) 19:16:07 145.827
CUBESAT XI-V 08 Feb 19:07:04 19:09:35 14° 299° (WNW) 19:12:05 437.345
UWE-3 08 Feb 19:07:10 19:09:55 17° 64° (ENE) 19:12:38 435.000/436.395/437.385
HO-68 08 Feb 19:07:50 19:15:01 89° 75° (ENE) 19:22:16 435.675
STRAND 1 08 Feb 19:09:43 19:14:55 88° 107° (ESE) 19:20:05 437.568
Oscar 11 08 Feb 19:13:11 19:16:08 18° 64° (ENE) 19:19:06 145.826/435.025
DOVE 4 08 Feb 19:16:26 19:21:15 41° 262° (W) 19:25:54 437.250
RS-15 08 Feb 19:16:29 19:28:21 56° 44° (NE) 19:40:24 29.354- 29.394
COMPASS 1 08 Feb 19:23:12 19:27:17 61° 74° (ENE) 19:31:25 437.405
CUTE 1.7 + AOD 2 08 Feb 19:25:46 19:29:57 70° 259° (W) 19:34:11 437.475
GOMX 1 08 Feb 19:29:12 19:33:05 20° 269° (W) 19:36:53 467.674
SEEDS 08 Feb 19:34:43 19:38:52 73° 258° (WSW) 19:43:05 437.485
PRISM 08 Feb 19:42:18 19:46:29 66° 102° (ESE) 19:50:37 437.425
DELFI C3 08 Feb 19:44:39 19:47:33 20° 66° (ENE) 19:50:27 145.870
GONETS M04 08 Feb 19:46:53 19:55:44 76° 81° (E) 20:04:34
AAUSAT CUBESAT 2 08 Feb 19:53:14 19:57:22 75° 257° (WSW) 20:01:32 437.432
ZACube-1 08 Feb 20:03:00 20:07:02 44° 72° (ENE) 20:11:00 437.345
AO-85 08 Feb 20:04:16 20:08:44 31° 247° (WSW) 20:12:51 145.980
AIST 1 08 Feb 20:05:51 20:06:38 10° 65° (ENE) 20:07:24
Cosmos 2499 08 Feb 20:09:47 20:18:00 49° 73° (ENE) 20:25:36 435.465 / 435.565
CANX-2 08 Feb 20:11:57 20:15:05 20° 267° (W) 20:18:14 2200.000
FUNcube-1 08 Feb 20:12:44 20:16:50 54° 73° (ENE) 20:20:54 145.935
CINEMA 3 08 Feb 20:22:37 20:26:18 23° 266° (W) 20:29:53 145.822/145.860
ISS 08 Feb 20:27:48 20:30:36 26° 15° (NNE) 20:33:24 145.825
HUMSAT D 08 Feb 20:34:16 20:37:48 29° 69° (ENE) 20:41:22 437.325/437.525
CUBEBUG 2 08 Feb 20:38:22 20:42:25 37° 262° (W) 20:46:24 437.445
AIST 2 08 Feb 20:41:43 20:44:45 19° 319° (NW) 20:47:48 435.215
UWE-3 08 Feb 20:41:56 20:46:03 47° 261° (W) 20:50:08 435.000/436.395/437.385
ESTCUBE 1 08 Feb 20:46:20 20:47:43 11° 59° (ENE) 20:49:07 437.505/2401.250
Oscar 11 08 Feb 20:47:50 20:51:57 45° 262° (W) 20:56:06 145.826/435.025
PCSat 08 Feb 20:49:31 20:54:20 33° 250° (WSW) 20:59:08 145.827
STRAND 1 08 Feb 20:50:49 20:53:21 14° 302° (WNW) 20:55:52 437.568
ANTELSAT 08 Feb 20:56:38 20:56:58 10° 88° (E) 20:57:20 437.575/2403.000
DX 1 08 Feb 20:58:59 21:01:21 14° 61° (ENE) 21:03:44 434.975-435.025
HO-68 08 Feb 20:59:12 21:03:38 17° 271° (W) 21:08:07 435.675
COMPASS 1 08 Feb 21:01:43 21:03:17 12° 271° (W) 21:04:52 437.405
TIGRISAT 08 Feb 21:02:54 21:04:25 12° 89° (E) 21:05:57 435.000
DELFI C3 08 Feb 21:18:36 21:22:15 35° 263° (W) 21:25:56 145.870
PRISM 08 Feb 21:19:23 21:21:17 13° 299° (WNW) 21:23:10 437.425
RS-15 08 Feb 21:29:19 21:40:56 54° 248° (WSW) 21:52:40 29.354- 29.394
AIST 1 08 Feb 21:40:29 21:44:52 78° 263° (W) 21:49:10
ZACube-1 08 Feb 21:40:53 21:43:33 16° 268° (W) 21:46:13 437.345
UNISAT 6 08 Feb 21:45:02 21:49:01 35° 98° (E) 21:53:01 437.425
GONETS M04 08 Feb 21:45:02 21:51:36 24° 281° (W) 21:58:11
VELOX 1 08 Feb 21:46:40 21:50:48 38° 70° (ENE) 21:54:58 145.980
50 SAT 08 Feb 21:47:05 21:50:35 41° 72° (ENE) 21:54:07 437.505
FUNcube-1 08 Feb 21:51:21 21:53:25 13° 270° (W) 21:55:29 145.935
AISAT 08 Feb 22:02:47 22:07:11 59° 73° (ENE) 22:11:36 437.250
Cosmos 2499 08 Feb 22:03:21 22:10:52 37° 275° (W) 22:17:54 435.465 / 435.565
ISS 08 Feb 22:04:05 22:07:20 80° 214° (SSW) 22:10:34 145.825
HUMSAT D 08 Feb 22:10:08 22:13:28 24° 266° (W) 22:16:47 437.325/437.525
POLYITAN 1 08 Feb 22:14:28 22:17:21 18° 93° (E) 22:20:12 437.675
QB50P2 08 Feb 22:15:06 22:18:05 19° 93° (E) 22:21:04 145.880/145.840
ESTCUBE 1 08 Feb 22:19:17 22:23:49 88° 257° (WSW) 22:28:24 437.505/2401.250
UKube-1 08 Feb 22:22:58 22:27:18 87° 79° (E) 22:31:41 .
CUBEBUG 1 08 Feb 22:26:17 22:30:42 82° 78° (ENE) 22:35:11 437.445
BUGSAT 1 08 Feb 22:26:33 22:27:14 10° 89° (E) 22:27:56 437.445
ANTELSAT 08 Feb 22:29:53 22:34:13 78° 284° (WNW) 22:38:36 437.575/2403.000
DX 1 08 Feb 22:32:41 22:37:02 64° 258° (WSW) 22:41:24 434.975-435.025
SPROUT 08 Feb 22:34:56 22:38:52 36° 70° (ENE) 22:42:49 437.525
TIGRISAT 08 Feb 22:37:16 22:41:33 68° 285° (WNW) 22:45:53 435.000
POPSAT HIP 1 08 Feb 22:44:31 22:48:25 36° 98° (E) 22:52:17 437.405
TISAT 1 08 Feb 22:49:46 22:52:57 21° 65° (ENE) 22:56:08 437.305
NANOSAT C BR1 08 Feb 22:50:00 22:53:58 40° 98° (E) 22:57:55 145.865
DUCHIFAT 1 08 Feb 22:52:01 22:55:59 40° 98° (E) 22:59:55 145.980
QB50P1 08 Feb 22:57:09 23:01:16 51° 100° (E) 23:05:21 145.935-145.965
UNISAT 6 08 Feb 23:22:09 23:25:34 23° 294° (WNW) 23:29:02 437.425
50 SAT 08 Feb 23:22:54 23:24:51 14° 269° (W) 23:26:48 437.505
VELOX 1 08 Feb 23:23:57 23:27:24 22° 266° (W) 23:30:53 145.980
AISAT 08 Feb 23:41:39 23:44:04 14° 269° (W) 23:46:30 437.250
ISS 08 Feb 23:42:39 23:43:17 10° 230° (SW) 23:43:54 145.825
POLYITAN 1 08 Feb 23:49:23 23:53:21 41° 289° (WNW) 23:57:18 437.675
RS-15 08 Feb 23:49:34 23:50:24 10° 269° (W) 23:51:13 29.354- 29.394
SWISSCUBE 08 Feb 23:49:56 23:53:31 22° 63° (ENE) 23:57:07 437.505
QB50P2 08 Feb 23:50:09 23:54:05 40° 289° (WNW) 23:58:00 145.880/145.840
BUGSAT 1 08 Feb 23:59:04 00:03:05 66° 287° (WNW) 00:07:04 437.445
SPROUT 09 Feb 00:11:39 00:14:58 21° 267° (W) 00:18:16 437.525
POPSAT HIP 1 09 Feb 00:20:49 00:24:00 21° 294° (WNW) 00:27:10 437.405
TISAT 1 09 Feb 00:24:28 00:28:24 37° 262° (W) 00:32:21 437.305
ITUPSAT 1 09 Feb 00:25:03 00:29:29 40° 69° (ENE) 00:33:57 437.325
NANOSAT C BR1 09 Feb 00:26:28 00:29:26 19° 295° (WNW) 00:32:25 145.865
CUSAT 1 09 Feb 00:27:31 00:34:13 31° 86° (E) 00:41:00 437.405
DUCHIFAT 1 09 Feb 00:28:28 00:31:25 19° 295° (WNW) 00:34:22 145.980
QB50P1 09 Feb 00:34:06 00:36:40 16° 297° (WNW) 00:39:13 145.935-145.965
BEESAT 09 Feb 00:34:09 00:38:44 50° 71° (ENE) 00:43:21 436.000
PHONESAT 2.4 09 Feb 00:36:01 00:37:45 14° 152° (SSE) 00:39:28 2401.200-2431.200
Cosmos 2491 09 Feb 00:37:03 00:44:14 27° 65° (ENE) 00:51:23 435.465 / 435.565
JAS-2 09 Feb 00:38:48 00:43:20 24° 91° (E) 00:47:35 435.910
DANDE 09 Feb 00:51:00 00:57:19 28° 83° (E) 01:04:07 436.750
Oscar 19 09 Feb 00:55:18 01:00:17 47° 99° (E) 01:05:12 437.125/150
KKS-1 09 Feb 00:58:40 01:00:53 14° 60° (ENE) 01:03:04 437.445
BEESAT 3 09 Feb 01:13:28 01:17:13 39° 49° (NE) 01:20:57 437.485
Gurwin Techsat 1B 09 Feb 01:17:02 01:21:40 29° 95° (E) 01:26:16 435.225
SWISSCUBE 09 Feb 01:26:26 01:31:00 46° 261° (W) 01:35:37 437.505
YUBILEINY 09 Feb 01:31:08 01:37:15 22° 78° (ENE) 01:43:25 435.215
BEESAT 2 09 Feb 01:35:32 01:39:23 43° 50° (NE) 01:43:10 435.950
AIST 2 09 Feb 01:45:36 01:46:43 11° 32° (NNE) 01:47:51 435.215
ITAMSAT 1 09 Feb 02:01:35 02:06:30 39° 98° (E) 02:11:22 435.822/435.867
ITUPSAT 1 09 Feb 02:03:40 02:07:28 23° 266° (W) 02:11:18 437.325
CUSAT 1 09 Feb 02:08:09 02:16:02 65° 284° (WNW) 02:24:02 437.405
PHONESAT 2.4 09 Feb 02:11:26 02:14:30 36° 168° (SSE) 02:17:32 2401.200-2431.200
BEESAT 09 Feb 02:13:29 02:16:49 19° 268° (W) 02:20:10 436.000
MOZHAYETS 4 09 Feb 02:18:16 02:22:18 32° 68° (ENE) 02:26:21
STARS 09 Feb 02:18:37 02:22:49 46° 71° (ENE) 02:27:02 437.465
JAS-2 09 Feb 02:23:16 02:28:47 46° 292° (WNW) 02:33:50 435.910
DANDE 09 Feb 02:31:50 02:39:31 71° 283° (WNW) 02:48:04 436.750
KKS-1 09 Feb 02:32:26 02:36:53 71° 257° (WSW) 02:41:21 437.445
Cosmos 2491 09 Feb 02:33:11 02:41:53 72° 266° (W) 02:50:35 435.465 / 435.565
Oscar 19 09 Feb 02:35:17 02:39:18 24° 297° (WNW) 02:43:18 437.125/150
BEESAT 3 09 Feb 02:51:46 02:54:44 20° 247° (WSW) 02:57:41 437.485
Gurwin Techsat 1B 09 Feb 02:56:47 03:01:41 38° 292° (WNW) 03:06:33 435.225
CUBESAT XI-V 09 Feb 02:59:51 03:00:27 10° 57° (ENE) 03:01:03 437.345
BEESAT 2 09 Feb 03:14:08 03:16:58 19° 248° (WSW) 03:19:47 435.950
AO-7 09 Feb 03:19:33 03:27:39 52° 102° (ESE) 03:35:40 29.400- 29.500
AIST 2 09 Feb 03:22:01 03:26:07 59° 53° (NE) 03:30:11 435.215
YUBILEINY 09 Feb 03:24:07 03:32:55 83° 279° (W) 03:41:50 435.215
SO-50 09 Feb 03:40:27 03:43:09 15° 108° (ESE) 03:45:53 436.795
ITAMSAT 1 09 Feb 03:41:21 03:45:49 29° 295° (WNW) 03:50:16 435.822/435.867
Cosmos 2504 09 Feb 03:43:55 03:51:18 33° 83° (E) 03:58:54 435.465 / 435.565
PHONESAT 2.4 09 Feb 03:48:21 03:51:30 45° 184° (S) 03:54:38 2401.200-2431.200
HORYU 2 09 Feb 03:49:26 03:53:35 38° 98° (E) 03:57:44 437.375
CUSAT 1 09 Feb 03:55:18 03:59:51 16° 304° (NW) 04:04:23 437.405
MOZHAYETS 4 09 Feb 03:55:36 03:59:28 27° 265° (W) 04:03:23
STARS 09 Feb 03:56:26 03:59:26 18° 268° (W) 04:02:26 437.465
DANDE 09 Feb 04:18:53 04:24:07 18° 304° (NW) 04:29:34 436.750
M-CUBED/EXP-1 PRIME 09 Feb 04:27:36 04:30:55 65° 291° (WNW) 04:34:24 437.505
CUBESAT XI-V 09 Feb 04:32:20 04:37:01 80° 75° (ENE) 04:41:46 437.345
Cosmos 2491 09 Feb 04:33:10 04:37:01 14° 287° (WNW) 04:40:55 435.465 / 435.565
AUBIESAT-1 09 Feb 04:38:19 04:41:40 58° 290° (WNW) 04:45:11 437.475
STRAND 1 09 Feb 04:49:39 04:53:20 20° 61° (ENE) 04:57:01 437.568
AIST 2 09 Feb 05:01:51 05:04:09 15° 250° (WSW) 05:06:26 435.215
CUTE-I 09 Feb 05:11:42 05:15:55 23° 93° (E) 05:20:08 437.470
AO-7 09 Feb 05:12:40 05:20:13 40° 301° (WNW) 05:27:43 29.400- 29.500
SO-50 09 Feb 05:18:06 05:23:01 78° 306° (NW) 05:28:01 436.795
Cubesat XI-IV 09 Feb 05:24:46 05:29:29 30° 95° (E) 05:34:10 437.490
YUBILEINY 09 Feb 05:25:20 05:31:14 19° 301° (WNW) 05:37:10 435.215
PHONESAT 2.4 09 Feb 05:25:45 05:28:24 23° 201° (SSW) 05:31:02 2401.200-2431.200
HORYU 2 09 Feb 05:26:29 05:29:57 23° 295° (WNW) 05:33:25 437.375
Cosmos 2504 09 Feb 05:35:44 05:44:10 59° 284° (WNW) 05:52:59 435.465 / 435.565
LilacSat-2 09 Feb 05:52:18 05:55:58 45° 99° (E) 05:59:36 437.200
GOMX 1 09 Feb 05:52:22 05:54:21 13° 88° (E) 05:56:18 467.674
CUBESAT XI-V 09 Feb 06:13:30 06:14:59 11° 272° (W) 06:16:29 437.345
BRITE-PL 09 Feb 06:17:54 06:22:37 50° 98° (E) 06:26:57 437.365/2234.400
STRAND 1 09 Feb 06:27:04 06:32:04 57° 259° (W) 06:37:09 437.568
PRISM 09 Feb 06:32:53 06:36:57 56° 73° (ENE) 06:41:04 437.425
HO-68 09 Feb 06:36:09 06:40:08 15° 88° (E) 06:44:05 435.675
CUTE-I 09 Feb 06:51:03 06:56:14 50° 290° (WNW) 07:01:24 437.470
GONETS M04 09 Feb 06:57:26 07:02:25 17° 75° (ENE) 07:07:24
SO-50 09 Feb 07:01:10 07:04:21 17° 326° (NW) 07:07:33 436.795
Cubesat XI-IV 09 Feb 07:04:39 07:09:37 39° 293° (WNW) 07:14:33 437.490
AO-7 09 Feb 07:09:54 07:10:39 10° 324° (NW) 07:11:26 29.400- 29.500
CUTE 1.7 + AOD 2 09 Feb 07:10:13 07:13:14 18° 92° (E) 07:16:14 437.475
DOVE 4 09 Feb 07:14:10 07:18:19 47° 99° (E) 07:22:19 437.250
SEEDS 09 Feb 07:18:20 07:21:09 17° 92° (E) 07:23:57 437.485
LilacSat-2 09 Feb 07:27:52 07:29:55 14° 296° (WNW) 07:31:58 437.200
GOMX 1 09 Feb 07:28:32 07:32:59 60° 287° (WNW) 07:37:10 467.674
AAUSAT CUBESAT 2 09 Feb 07:35:30 07:38:05 16° 91° (E) 07:40:40 437.432
Cosmos 2504 09 Feb 07:35:53 07:39:47 13° 307° (NW) 07:43:46 435.465 / 435.565
CANX-2 09 Feb 07:54:13 07:58:29 62° 101° (E) 08:02:44 2200.000
ANTELSAT 09 Feb 07:56:33 07:58:06 12° 61° (ENE) 07:59:39 437.575/2403.000
BRITE-PL 09 Feb 07:57:18 08:00:40 19° 298° (WNW) 08:03:51 437.365/2234.400
TIGRISAT 09 Feb 08:03:12 08:05:13 13° 62° (ENE) 08:07:15 435.000
O/OREOS (USA 219) 09 Feb 08:03:22 08:07:51 83° 293° (WNW) 08:12:23 437.305
PRISM 09 Feb 08:10:39 08:12:39 13° 269° (W) 08:14:40 437.425
CINEMA 3 09 Feb 08:14:46 08:18:56 75° 102° (ESE) 08:23:05 145.822/145.860
HO-68 09 Feb 08:21:36 08:28:51 84° 106° (ESE) 08:36:04 435.675
CUBEBUG 2 09 Feb 08:27:28 08:31:20 36° 97° (E) 08:35:15 437.445
UWE-3 09 Feb 08:30:09 08:33:48 28° 96° (E) 08:37:29 435.000/436.395/437.385
Oscar 11 09 Feb 08:33:45 08:37:32 28° 95° (E) 08:41:18 145.826/435.025
COMPASS 1 09 Feb 08:40:11 08:44:26 83° 282° (WNW) 08:48:39 437.405
AO-85 09 Feb 08:42:56 08:43:48 10° 103° (ESE) 08:44:40 145.980
CUTE 1.7 + AOD 2 09 Feb 08:45:13 08:49:16 41° 289° (WNW) 08:53:19 437.475
UNISAT 6 09 Feb 08:45:17 08:49:14 36° 70° (ENE) 08:53:10 437.425
Cosmos 2499 09 Feb 08:46:53 08:54:44 40° 85° (E) 09:02:45 435.465 / 435.565
GONETS M04 09 Feb 08:49:07 08:57:47 83° 96° (E) 09:06:32
DOVE 4 09 Feb 08:52:57 08:55:39 16° 297° (WNW) 08:58:17 437.250
SEEDS 09 Feb 08:53:01 08:57:05 45° 288° (WNW) 09:01:08 437.485
DELFI C3 09 Feb 08:55:17 08:58:43 26° 95° (E) 09:02:07 145.870
POLYITAN 1 09 Feb 09:08:53 09:11:40 17° 64° (ENE) 09:14:26 437.675
QB50P2 09 Feb 09:09:28 09:12:21 18° 64° (ENE) 09:15:13 145.880/145.840
AAUSAT CUBESAT 2 09 Feb 09:09:48 09:13:51 47° 288° (WNW) 09:17:53 437.432
BUGSAT 1 09 Feb 09:18:09 09:19:03 11° 60° (ENE) 09:19:57 437.445
ZACube-1 09 Feb 09:25:42 09:29:56 82° 102° (ESE) 09:34:13 437.345
ANTELSAT 09 Feb 09:29:56 09:34:15 75° 258° (WSW) 09:38:33 437.575/2403.000
CANX-2 09 Feb 09:31:37 09:33:51 14° 298° (WNW) 09:36:05 2200.000
FUNcube-1 09 Feb 09:35:13 09:39:26 82° 281° (WNW) 09:43:42 145.935
TIGRISAT 09 Feb 09:37:08 09:41:25 66° 258° (WSW) 09:45:41 435.000
POPSAT HIP 1 09 Feb 09:38:20 09:42:07 33° 69° (ENE) 09:45:55 437.405
NANOSAT C BR1 09 Feb 09:43:25 09:47:17 36° 70° (ENE) 09:51:11 145.865
RS-15 09 Feb 09:45:10 09:53:21 25° 100° (E) 10:01:48 29.354- 29.394
DUCHIFAT 1 09 Feb 09:45:12 09:49:05 36° 70° (ENE) 09:52:56 145.980
O/OREOS (USA 219) 09 Feb 09:46:29 09:48:02 12° 313° (NW) 09:49:35 437.305
PCSat 09 Feb 09:49:40 09:54:04 26° 108° (ESE) 09:58:30 145.827
QB50P1 09 Feb 09:50:45 09:54:48 45° 71° (ENE) 09:58:50 145.935-145.965
HUMSAT D 09 Feb 09:51:16 09:55:17 45° 99° (E) 09:59:19 437.325/437.525
CINEMA 3 09 Feb 09:54:25 09:55:30 11° 299° (WNW) 09:56:35 145.822/145.860
CUBEBUG 2 09 Feb 10:04:39 10:07:46 21° 294° (WNW) 10:10:56 437.445
UWE-3 09 Feb 10:06:43 10:10:13 26° 292° (WNW) 10:13:45 435.000/436.395/437.385
Oscar 11 09 Feb 10:09:55 10:13:37 28° 292° (WNW) 10:17:18 145.826/435.025
HO-68 09 Feb 10:10:32 10:15:45 22° 306° (NW) 10:20:57 435.675
UKube-1 09 Feb 10:10:39 10:12:39 13° 90° (E) 10:14:36 .
AIST 1 09 Feb 10:10:46 10:15:05 57° 94° (E) 10:19:25
ESTCUBE 1 09 Feb 10:11:32 10:14:37 18° 92° (E) 10:17:42 437.505/2401.250
CUBEBUG 1 09 Feb 10:15:17 10:17:31 14° 90° (E) 10:19:44 437.445
AO-85 09 Feb 10:18:01 10:23:21 71° 121° (ESE) 10:28:51 145.980
DX 1 09 Feb 10:20:21 10:23:32 20° 93° (E) 10:26:42 434.975-435.025
UNISAT 6 09 Feb 10:22:46 10:26:04 21° 266° (W) 10:29:21 437.425
DELFI C3 09 Feb 10:30:09 10:33:35 27° 292° (WNW) 10:36:59 145.870
Oscar 19 09 Feb 10:38:11 10:40:00 12° 56° (NE) 10:41:50 437.125/150
Cosmos 2499 09 Feb 10:39:13 10:47:38 51° 286° (WNW) 10:56:16 435.465 / 435.565
POLYITAN 1 09 Feb 10:43:03 10:47:08 47° 261° (W) 10:51:14 437.675
QB50P2 09 Feb 10:43:46 10:47:50 45° 261° (W) 10:51:55 145.880/145.840
GONETS M04 09 Feb 10:49:11 10:55:44 23° 298° (WNW) 11:02:21
BUGSAT 1 09 Feb 10:49:36 10:53:50 82° 259° (W) 10:58:01 437.445
50 SAT 09 Feb 10:51:00 10:54:42 48° 100° (E) 10:58:23 437.505
JAS-2 09 Feb 10:52:25 10:57:18 19° 57° (ENE) 11:01:54 435.910
CUSAT 1 09 Feb 11:04:21 11:08:25 18° 57° (ENE) 11:11:54 437.405
ZACube-1 09 Feb 11:04:48 11:05:37 10° 300° (WNW) 11:06:26 437.345
VELOX 1 09 Feb 11:11:31 11:15:57 64° 102° (ESE) 11:20:18 145.980
POPSAT HIP 1 09 Feb 11:14:35 11:17:58 23° 266° (W) 11:21:21 437.405
NANOSAT C BR1 09 Feb 11:19:58 11:23:09 21° 266° (W) 11:26:21 145.865
DUCHIFAT 1 09 Feb 11:21:43 11:24:54 21° 266° (W) 11:28:05 145.980
HUMSAT D 09 Feb 11:27:52 11:30:35 17° 296° (WNW) 11:33:20 437.325/437.525
QB50P1 09 Feb 11:28:03 11:30:49 17° 268° (W) 11:33:34 145.935-145.965
AISAT 09 Feb 11:28:04 11:32:31 82° 284° (WNW) 11:36:54 437.250
DANDE 09 Feb 11:30:51 11:36:17 22° 58° (ENE) 11:40:51 436.750
PCSat 09 Feb 11:31:55 11:37:10 50° 307° (NW) 11:42:28 145.827
YUBILEINY 09 Feb 11:39:37 11:42:09 11° 50° (NE) 11:44:41 435.215
UKube-1 09 Feb 11:44:49 11:49:06 62° 288° (WNW) 11:53:21 .
ITAMSAT 1 09 Feb 11:46:43 11:47:25 10° 54° (NE) 11:48:07 435.822/435.867
ESTCUBE 1 09 Feb 11:47:19 11:51:42 48° 289° (WNW) 11:56:04 437.505/2401.250
CUBEBUG 1 09 Feb 11:49:53 11:54:13 58° 287° (WNW) 11:58:28 437.445
AIST 1 09 Feb 11:50:41 11:53:05 14° 293° (WNW) 11:55:30
RS-15 09 Feb 11:52:52 12:04:03 90° 107° (ESE) 12:15:55 29.354- 29.394
SPROUT 09 Feb 11:55:14 11:59:27 58° 101° (E) 12:03:39 437.525
DX 1 09 Feb 11:55:49 11:59:55 40° 290° (WNW) 12:03:58 434.975-435.025
AO-85 09 Feb 11:59:57 12:04:26 25° 321° (NW) 12:08:57 145.980
TISAT 1 09 Feb 12:07:10 12:10:48 28° 96° (E) 12:14:25 437.305
SO-50 09 Feb 12:08:40 12:12:35 24° 40° (NE) 12:16:25 436.795
Oscar 19 09 Feb 12:13:18 12:18:29 79° 74° (ENE) 12:23:41 437.125/150
50 SAT 09 Feb 12:26:21 12:28:21 14° 296° (WNW) 12:30:21 437.505
AO-7 09 Feb 12:30:49 12:36:26 20° 47° (NE) 12:42:02 29.400- 29.500
JAS-2 09 Feb 12:33:48 12:41:30 85° 75° (ENE) 12:48:33 435.910
BEESAT 09 Feb 12:35:16 12:36:46 11° 88° (E) 12:38:16 436.000
Gurwin Techsat 1B 09 Feb 12:39:15 12:44:24 53° 71° (ENE) 12:49:34 435.225
Cosmos 2499 09 Feb 12:40:53 12:43:17 11° 310° (NW) 12:45:41 435.465 / 435.565
CUSAT 1 09 Feb 12:45:36 12:51:43 67° 264° (W) 12:56:15 437.405
VELOX 1 09 Feb 12:49:30 12:51:54 15° 299° (WNW) 12:54:17 145.980
